Marshfield, WI

7:57 PM CST on December 05, 2016 (GMT -0600)
Marshfield Municipal

Weather History for KMFI - May, 2013

Change the Weather History Date:

Friday, May 3, 2013

  Actual Average Record
Temperature  
Mean Temperature 34 °F -  
Max Temperature 37 °F 63 °F 86 °F (1918)
Min Temperature 30 °F 37 °F 21 °F (1967)
Degree Days  
Heating Degree Days 32    
Moisture  
Dew Point 32 °F    
Average Humidity 93    
Maximum Humidity 100    
Minimum Humidity 86    
Precipitation  
Precipitation 0.41 in - - ()
Sea Level Pressure  
Sea Level Pressure 30.18 in    
Wind  
Wind Speed 11 mph (NNE)    
Max Wind Speed 15 mph    
Max Gust Speed 22 mph    
Visibility 6 miles    
Events Rain    
Averages and records for this station are not official NWS values.
T = Trace of Precipitation, MM = Missing Value Source: NWS Daily Summary

Daily Weather History Graph

Daily Weather History Graph

Search for Another Location

Airport or City:

Trip Planner

Search our weather history database for the weather conditions in past years. The results will help you decide how hot, cold, wet, or windy it might be!

Date:

Astronomy

May. 03, 2013 Rise Set
Actual Time 5:47 AM CDT 8:08 PM CDT
Civil Twilight 5:15 AM CDT 8:40 PM CDT
Nautical Twilight 4:35 AM CDT 9:21 PM CDT
Astronomical Twilight 3:50 AM CDT 10:06 PM CDT
Moon 2:27 AM CDT (5/3) 1:48 PM CDT (5/3)
Length of Visible Light 15h 25m
Length of Day
14h 20m
Last Quarter, 37% of the Moon is Illuminated
May 3
Last Quarter
May 9
New
May 17
First Quarter
May 24
Full
May 31
Last Quarter

Hourly Weather History & Observations

Time (CDT) Temp. Windchill Dew Point Humidity Pressure Visibility Wind Dir Wind Speed Gust Speed Precip Events Conditions
12:18 AM 30.2 °F 21.9 °F 26.6 °F 86% 30.30 in 10.0 mi North 9.2 mph 17.3 mph N/A   Overcast
12:54 AM 30.9 °F 21.7 °F 28.0 °F 89% 30.33 in 5.0 mi NNE 11.5 mph - N/A   Overcast
1:54 AM 30.0 °F 21.1 °F 28.0 °F 92% 30.29 in 6.0 mi NNE 10.4 mph - N/A   Overcast
2:16 AM 30.2 °F 19.8 °F 28.4 °F 93% 30.24 in 4.0 mi North 13.8 mph 20.7 mph N/A   Overcast
2:54 AM 30.0 °F 20.5 °F 28.0 °F 92% 30.28 in 5.0 mi NNE 11.5 mph - N/A   Overcast
3:54 AM 30.0 °F 22.4 °F 28.0 °F 92% 30.27 in 4.0 mi North 8.1 mph - N/A   Overcast
4:54 AM 30.0 °F 20.0 °F 28.0 °F 92% 30.25 in 4.0 mi North 12.7 mph 21.9 mph 0.00 in   Overcast
5:23 AM 30.2 °F 19.8 °F 28.4 °F 93% 30.19 in 6.0 mi NNE 13.8 mph 19.6 mph 0.01 in   Overcast
5:54 AM 30.9 °F 22.2 °F 28.0 °F 89% 30.24 in 10.0 mi NNE 10.4 mph 20.7 mph 0.02 in   Overcast
6:51 AM 30.2 °F 21.3 °F 28.4 °F 93% 30.18 in 4.0 mi NNE 10.4 mph - 0.01 in   Overcast
6:54 AM 30.9 °F 22.2 °F 28.9 °F 92% 30.23 in 4.0 mi NNE 10.4 mph - 0.01 in   Overcast
7:07 AM 30.2 °F 19.8 °F 28.4 °F 93% 30.17 in 4.0 mi North 13.8 mph 20.7 mph 0.01 in   Overcast
7:32 AM 32.0 °F 22.1 °F 28.4 °F 87% 30.17 in 4.0 mi NNE 13.8 mph - 0.04 in   Overcast
7:52 AM 32.0 °F 23.0 °F 30.2 °F 93% 30.17 in 5.0 mi NNE 11.5 mph 19.6 mph 0.07 in   Overcast
7:54 AM 32.0 °F 24.8 °F 30.0 °F 92% 30.23 in 5.0 mi NNE 8.1 mph 17.3 mph 0.07 in   Overcast
8:09 AM 32.0 °F 22.5 °F 30.2 °F 93% 30.18 in 5.0 mi NE 12.7 mph 17.3 mph 0.02 in   Overcast
8:54 AM 32.0 °F 24.2 °F 30.0 °F 92% 30.21 in 5.0 mi NNE 9.2 mph - 0.08 in   Overcast
9:54 AM 32.0 °F 22.5 °F 30.0 °F 92% 30.19 in 7.0 mi NNE 12.7 mph - 0.05 in   Overcast
10:20 AM 32.0 °F 24.8 °F 30.2 °F 93% 30.15 in 10.0 mi NE 8.1 mph 17.3 mph 0.00 in   Overcast
10:54 AM 33.1 °F 24.9 °F 30.0 °F 89% 30.20 in 10.0 mi NE 10.4 mph - 0.00 in   Overcast
11:54 AM 34.0 °F 26.6 °F 30.9 °F 89% 30.18 in 9.0 mi NNE 9.2 mph - 0.00 in Rain Light Rain
12:54 PM 35.1 °F 27.4 °F 33.1 °F 92% 30.16 in 7.0 mi NE 10.4 mph - 0.00 in Rain Light Rain
1:54 PM 35.1 °F 27.4 °F 33.1 °F 92% 30.16 in 6.0 mi NNE 10.4 mph - 0.00 in Rain Light Rain
2:54 PM 36.0 °F 28.0 °F 34.0 °F 93% 30.15 in 6.0 mi NNE 11.5 mph - 0.02 in Rain Light Rain
3:54 PM 36.0 °F 27.1 °F 34.0 °F 93% 30.14 in 6.0 mi NE 13.8 mph - 0.02 in Rain Rain
4:54 PM 37.0 °F 28.1 °F 35.1 °F 93% 30.12 in 10.0 mi NE 15.0 mph - 0.01 in Rain Light Rain
5:54 PM 37.0 °F 30.4 °F 36.0 °F 96% 30.12 in 8.0 mi NE 9.2 mph - 0.01 in Rain Light Rain
6:54 PM 37.0 °F 31.6 °F 37.0 °F 100% 30.12 in 4.0 mi NNE 6.9 mph - 0.03 in Rain Light Rain
7:34 PM 37.4 °F 30.3 °F 35.6 °F 93% 30.07 in 1.5 mi NE 10.4 mph - 0.02 in Rain Rain
7:54 PM 37.0 °F 32.4 °F 37.0 °F 100% 30.12 in 3.0 mi NNE 5.8 mph - 0.07 in Rain Light Rain
8:54 PM 37.0 °F 31.0 °F 37.0 °F 100% 30.12 in 10.0 mi NE 8.1 mph - 0.02 in   Overcast
9:54 PM 37.0 °F 30.4 °F 37.0 °F 100% 30.13 in 10.0 mi NNE 9.2 mph - N/A   Overcast
10:54 PM 37.0 °F 31.0 °F 37.0 °F 100% 30.12 in 10.0 mi NNE 8.1 mph - N/A   Overcast
11:34 PM 37.4 °F 32.1 °F 37.4 °F 100% 30.06 in 10.0 mi NNE 6.9 mph - N/A   Overcast
11:54 PM 37.9 °F 32.1 °F 37.0 °F 97% 30.10 in 10.0 mi NE 8.1 mph - N/A   Overcast